Location: La Savane
(18.0962°N, 63.0646°W)
Time: 18:29:39
(UTC+00:00)

SL-16 R/B - Pass Details

Date: 29 October 2020
Orbit: 843 x 845 km, 71.0° (Epoch: 24 November)

Event Time Altitude Azimuth Distance (km) Brightness Sun altitude
Rises 23:37:25 0° 200° (SSW) 3,385 5.7 -28.0°
Reaches altitude 10° 23:39:52 10° 201° (SSW) 2,452 4.9 -28.6°
Enters shadow 23:45:15 74° 261° (W) 875 2.3 -29.9°
